This is the latest recevied weather packets stored in our database for station/object KC3SOZ. If no packets are shown the sender has not sent any weather packets the latest 10 day(s).
| Time | Temp. | Humidity | Pressure | Rain* | Wind** | Luminosity | Snow |
|---|---|---|---|---|---|---|---|
| 1777615380 | 4.44° C | 95% | 1014.5 hPa | 0 mm | - | 0 W/m² | - |
| 1777615080 | 5° C | 95% | 1014.6 hPa | 0 mm | - | 0 W/m² | - |
| 1777614775 | 5° C | 95% | 1014.7 hPa | 0 mm | - | 0 W/m² | - |
| 1777614471 | 5° C | 95% | 1014.6 hPa | 0 mm | - | 0 W/m² | - |
| 1777614167 | 5° C | 94% | 1014.5 hPa | 0 mm | - | 0 W/m² | - |
| 1777613862 | 5° C | 95% | 1014.6 hPa | 0 mm | - | 0 W/m² | - |
| 1777613560 | 5° C | 95% | 1014.5 hPa | 0 mm | - | 0 W/m² | - |
| 1777613256 | 5° C | 94% | 1014.6 hPa | 0 mm | - | 0 W/m² | - |
| 1777612953 | 5.56° C | 94% | 1014.6 hPa | 0 mm | - | 0 W/m² | - |
| 1777612648 | 5.56° C | 94% | 1014.4 hPa | 0 mm | - | 0 W/m² | - |
| 1777612345 | 5.56° C | 94% | 1014.5 hPa | 0 mm | - | 0 W/m² | - |
| 1777612045 | 5.56° C | 93% | 1014.3 hPa | 0 mm | - | 0 W/m² | - |
| 1777611740 | 5.56° C | 93% | 1014.4 hPa | 0 mm | - | 0 W/m² | - |
| 1777611437 | 5.56° C | 93% | 1014.3 hPa | 0 mm | - | 0 W/m² | - |
| 1777611134 | 6.11° C | 92% | 1014.5 hPa | 0 mm | - | 0 W/m² | - |
| 1777610829 | 6.11° C | 92% | 1014.3 hPa | 0 mm | - | 0 W/m² | - |
| 1777610525 | 6.11° C | 91% | 1014.5 hPa | 0 mm | - | 0 W/m² | - |
| 1777610219 | 6.67° C | 90% | 1014.4 hPa | 0 mm | - | 0 W/m² | - |
| 1777609917 | 7.22° C | 88% | 1014.3 hPa | 0 mm | - | 0 W/m² | - |
| 1777609613 | 7.22° C | 87% | 1014.3 hPa | 0 mm | - | 0 W/m² | - |
| 1777609310 | 7.22° C | 86% | 1014.2 hPa | 0 mm | - | 0 W/m² | - |
| 1777609007 | 7.22° C | 86% | 1014.1 hPa | 0 mm | - | 0 W/m² | - |
| 1777608705 | 7.78° C | 85% | 1014.2 hPa | 0 mm | - | 0 W/m² | - |
| 1777608401 | 7.22° C | 85% | 1014.1 hPa | 0 mm | - | 0 W/m² | - |
| 1777608100 | 7.78° C | 85% | 1014.1 hPa | 0 mm | - | 0 W/m² | - |
* Rain latest hour (hover to see other rain measurements)
** Current wind speed in m/s (hover to see current wind gust speed)